User: anonymous   Login
Location: Unspecified
(0.0000°N, 0.0000°E)
Time: 01:58:43
(UTC+00:00)
Language:

MERIDIAN 4 - Orbit

View from above orbital plane
View from above orbital plane
View from above satellite
View from above satellite

Ground track
Ground track

The orbit data is extracted from the following two-line orbital elements,

1 37398U 11018A   21136.62977420 -.00000030  00000-0  00000-0 0  9995
2 37398  63.4871 345.7770 7334915 252.7414  25.4378  2.00610619 73511
Epoch (UTC): 16 May 2021 15:06:52
Eccentricity: 0.7334915
inclination: 63.4871°
perigee height: 699 km
apogee height: 39656 km
right ascension of ascending node: 345.7770°
argument of perigee: 252.7414°
revolutions per day: 2.00610619
mean anomaly at epoch: 25.4378°
orbit number at epoch: 7351

The dashed part of the orbit path shows where the satellite is in the earth's shadow,  

DLR